Tracking 23611 objects as of 17-Sep-2021
HD Live streaming from Space Station
objects crossing your sky now
Track INSPIRATION-4

DMSP 5D-2 F13 DEB

Track DMSP 5D-2 F13 DEB now!
10-day predictions


NORAD ID: 40570
Int'l Code: 1995-015ED
Perigee: 794.1 km
Apogee: 821.9 km
Inclination: 98.7 °
Period: 100.9 minutes
Semi major axis: 7179 km
RCS: Unknown
Launch date: March 24, 1995
Source: United States (US)
Launch site: AIR FORCE WESTERN TEST RANGE (AFWTR)

Note: This is SATELLITE DEBRIS
aabbcc
Your satellite tracking list
Your tracking list is empty




NASA's NSSDC Master Catalog

Two Line Element Set (TLE):
1 40570U 95015ED  21260.30887538  .00001745  00000-0  73007-3 0  9996
2 40570  98.7180 280.7138 0019400 217.2293 142.7543 14.27267050335540
Source of the keplerian elements: AFSPC